Погода Ярково

Погода Ярково : погода сейчас, прогноз погоды и архив. Всё, что Вы хотите узнать о погоде Ярково!

Хотите узнать прогноз погоды Ярково? Тогда Вам сюда: Погода Ярково

Поиск расширенной информации на нашем сайте:

Другие новости

Новости СМИ2

Главная страница сайта

Новости сайта

03.07.2017

Напоминаем, что на нашем специализированном сайте Метеоцентр.Азия вы можете получить высокодетализированные автоматические прогнозы погоды по пунктам России, СНГ и мира в авиационном формате (включающие направление и скорость ветра, видимость, явления погоды, количество и форму облачности, нижнюю и верхнюю границу облачности).


Погода Ярково - сегодня

Время (UTC), дата Ветер
(°,м/с) 
Видим.   Явления Облачность Т
(°С)
Тd
(°С)
f(%) Тe
(°С)
Pmin
(гПа)
dP
(гПа)
Po
(мм)
O2
(г/м3)
Тmin Tmax R s Состояние
почвы
09 15.08.18 170 (Ю) 10 км    9/9 600 м кучево-дожд. 
[Cb cap]
+23.9 +16.8 64 +36  1005.2  -0.5  750  274           
12 15.08.18 160 (Ю) 10 км    9/3 600 м кучево-дожд., средняя, верхняя 
[Cb cap|Ac cuf|Ci sp]
+23.3 +17.3 69 +36  1004.9  -0.3  749  274           
18 15.08.18 350 (С) 10 км    10/10 600 м кучево-дожд. 
[Cb cap]
+17.5 +16.1 91 +29  1006.6  -0.1  751  281           
21 15.08.18 010 (С) 4000 м  слаб. ливневой дождь  10/10 600 м кучево-дожд. 
[Cb cap]
+16.8 +15.5 92 +27  1006.2  -0.4  750  281           
03 16.08.18 360 (С) 10 км    10/10 600 м кучево-дожд. 
[Cb cap]
+15 +13.4 90 +21  1009.3  1.5  753  285  +14.9       
06 16.08.18 010 (С) 10 км    9/9 600 м кучево-дожд. 
[Cb cap]
+17.3 +13.4 78 +24  1010.5  1.2  753  283           
09 16.08.18 020 (С) 10 км    8/4 600 м кучево-дожд., средняя, верхняя 
[Cb cap|Ac trans|Cc]
+20.9 +12.4 58 +25  1010.9  0.5  754  280           
12 16.08.18 010 (С) 10 км    5/3 1000 м кучево-дожд., верхняя 
[Cb cap|Cc]
+22.2 +11.5 51 +25  1011.4  0.4  754  279           
18 16.08.18 тихо ()   10 км  в посл. час ливневой дождь  10/10 600 м кучево-дожд. 
[Cb cap]
+15.3 +13.9 91 +22  1011.4  -0.1  754  285           
21 16.08.18 180 (Ю) 10 км    10/10 1000 м 
[Sc]
+15.9 +12.9 82 +22  1009.9  -1.5  753  284           
00 17.08.18 190 (Ю) 10 км    10/10 1000 м 
[Sc]
+15.9 +12.2 79 +20  1008.4  -1.5  752  284           
03 17.08.18 190 (Ю) 10 км  {ливн. осадки}  9/8 1000 м кучево-дожд., средняя 
[Cb cap|Ac trans]
+15.4 +14 91 +23  1007.2  -1.2  751  284  +14.6       
06 17.08.18 220 (ЮЗ) 10 км  {ливн. осадки}  9/9 600 м кучево-дожд. 
[Cb cap]
+20.1 +15.1 73 +29  1005.6  -1.6  750  278           
09 17.08.18 220 (ЮЗ) 10 км    9/9 600 м кучево-дожд. 
[Cb cap]
+21 +16.2 74 +32  1004.5  -1  749  277           
12 17.08.18 290 (З) 4{11}  10 км    9/5 600 м кучево-дожд., средняя, верхняя 
[Cb cap|Ac cuf|Ci fib]
+20.2 +13.8 67 +27  1004.3  -0.2  749  278           
15 17.08.18 300 (СЗ) 3{10}  4000 м  слаб. морось{дождь}  10/10 300 м 
[St]
+15.3 +13.9 91 +23  1005.9  1.5  750  283    +22.5  0.0     
18 17.08.18 280 (З) 4000 м  слаб. морось{дождь}  10/10 300 м 
[St]
+13.9 +12.4 91 +18  1006.6  0.6  750  285           
03 18.08.18 290 (З) 10 км  {морось}  10/10 300 м кучево-дожд. 
[Cb cap]
+12.5 +9.9 84 +13  1008.2  0.9  752  288  +11.3       
15 18.08.18 350 (С) 10 км  {морось}  9/9 300 м кучево-дожд. 
[Cb cap]
+12.4 +10.1 86 +13  1014.7  1.9  756  290    +13.2     
18 18.08.18 350 (С) 10 км  {морось}  10/10 600 м 
[Sc]
+11.8 +9.8 88 +13  1015.4  0.8  757  291           
21 18.08.18 350 (С) 10 км    10/10 600 м 
[Sc]
+11.5 +9.7 89 +13  1015.6  0.1  757  291           
00 19.08.18 350 (С) 10 км    10/10 600 м 
[Sc]
+11.2 +9.4 89 +11  1015.9  0.3  757  291           
03 19.08.18 010 (С) 10 км    10/10 600 м 
[Sc]
+12 +9.5 85 +12  1016.7  0.8  758  291  +11         
06 19.08.18 010 (С) 10 км  в посл. час ливневой дождь  10/10 600 м кучево-дожд. 
[Cb cap]
+13.7 +10.1 79 +15  1016.3  -0.3  758  289           
09 19.08.18 040 (СВ) 10 км    9/9 600 м кучево-дожд. 
[Cb cap]
+15.7 +9.1 65 +16  1016.2  -0.1  758  287           
Время (UTC), дата Ветер
(°,м/с) 
Видим.   Явления Облачность Т
(°С)
Тd
(°С)
f(%) Тe
(°С)
Pmin
(гПа)
dP
(гПа)
Po
(мм)
O2
(г/м3)
Тmin Tmax R s Состояние
почвы

Для получения пояснительной информации подведите курсор к названию столбца.

ПОГОДА Ярково - архив

Всё, что Вы хотите узнать о погоде Ярково - удобно и подробно!

Выберите нужную дату (начиная с 1 января 2015* года) и нажмите кнопку "Найти".
Будут отображены архивные сводки погоды по пункту Ярково, начиная с указанной даты.


Отображать данные в формате CSV (для использования в таблицах Excel)


Внимание! Наш архив погоды предназначен исключительно для личного некоммерческого использования в познавательных целях. Если Вам необходимы официальные справки о состоянии погоды (для производственных, юридических, коммерческих и т.п. целей), обращайтесь в органы Росгидромета.

*Примечание: данная дата относится к архиву по метеостанциям СССР (Россия, СНГ, Балтия).
Архив по метеостанциям Зарубежной Европы и Азии (кроме Китая) хранится 10 дней, по другим регионам земного шара (Китай, Африка, Америка, Австралия, Океания) - 1 день.

Ярково - район местоположения метеостанции


Название, широта, долгота, высота метеостанции:
Ярково 57.4°ш. 67.1°д. 50 м над ур. моря [Российская Федерация]

Дополнительная информация

В oтличие oт бoльшинства пoгoдных сайтoв мы публикуем пoдрoбную метеoинфoрмацию в детальнoм прoфессиoнальнoм фoрмате.

Характеристики температуры и влажнoсти вoздуха измеряются на высoте 2 м в тени вдали oт зданий и деревьев.
Скoрoсть ветра измеряется на высoте 10 м (на урoвне рoста челoвека скoрoсть ветра ниже в 1.5-2 раза). Если метеoстанция нахoдится в гoрoде или в лесу, тo скoрoсть ветра занижена на 2-4 м/с пo сравнению с oткрытым местoм. Скoрoсть ветра над акватoриями крупных рек и oзёр, а также на вершинах хoлмoв на 2-5 м/с выше, чем в oбычных услoвиях.
Атмoсфернoе давление в разных тoчках местнoсти мoжет значительнo oтличаться oт давления на метеoстанции, в зависимoсти oт услoвий рельефа (при пoдъёме на 10 м давление пoнижается примернo на 1 мм рт.ст.).